Regional Weather Roundup
Issued by NWS Jackson, KY

Home | Current Version | Previous Version | Graphics & Text | Print | Product List | Glossary On
Versions: 1 2 3 4 5 6 7 8 9 10 11 12 13 14 15 16 17 18 19 20 21 22 23 24 25 26 27
000
ASUS43 KJKL 041810
RWRJKL

EAST KENTUCKY HOURLY WEATHER ROUNDUP
NATIONAL WEATHER SERVICE JACKSON KY
100 PM EST SUN DEC 04 2016

NOTE: "FAIR" INDICATES FEW OR NO CLOUDS BELOW 12,000 FEET WITH
NO SIGNIFICANT WEATHER AND/OR OBSTRUCTIONS TO VISIBILITY.

* THESE REPORTS ARE NOT UNDER NWS QUALITY CONTROL AND MAY NOT
  REPORT WEATHER SUCH AS PRECIPITATION AND FOG.

KYZ079-080-083-085-087-088-110-112-115-119-120-041900
...EASTERN KENTUCKY...

CITY           SKY/WX    TMP DP  RH WIND       PRES   REMARKS
JACKSON        CLOUDY    42  33  70 SE5       30.04F
6HR MIN TEMP:  36; 6HR MAX TEMP:  42; 6HR PCP: TRACE;

LONDON         LGT RAIN  42  39  89 SE3       30.02F
6HR MIN TEMP:  37; 6HR MAX TEMP:  42; 6HR PCP:  0.02;

SOMERSET*      DRIZZLE   41  41 100 SE3       30.02F
MONTICELLO*    LGT RAIN  45  43  93 E8        30.02F FOG
6HR MIN TEMP:  39; 6HR MAX TEMP:  45; 6HR PCP:  0.01;

WILLIAMSBURG*  CLOUDY    43  43 100 SE3       30.03F
MIDDLESBORO*   LGT RAIN  44  43  97 SE3       30.06F
6HR MIN TEMP:  38; 6HR MAX TEMP:  44; 6HR PCP:  0.09;

HARLAN APT*    CLOUDY    43  41  93 NE5       30.04F
PIKE CO APT*   CLOUDY    44  36  71 CALM      30.06F
BIG SANDY APT* DRIZZLE   44  36  72 CALM      30.06F
6HR MIN TEMP:  36; 6HR MAX TEMP:  44;

MOREHEAD APT*  CLOUDY    46  30  53 VRB6G12   30.06F
ASHLAND*       CLOUDY    46  34  61 SE7       30.08F
$$

KYZ035-036-041-042-044-050-067-078-099-041900
...CENTRAL KENTUCKY...

CITY           SKY/WX    TMP DP  RH WIND       PRES   REMARKS
MT STERLING*   CLOUDY    45  34  65 SE6       30.04F
FLEMING/MASON* CLOUDY    43  30  60 E7        30.04F
DANVILLE*      CLOUDY    45  39  81 S8        30.01F
LEXINGTON      CLOUDY    46  35  65 SE7       30.00F
6HR MIN TEMP:  38; 6HR MAX TEMP:  46; 6HR PCP: TRACE;

FRANKFORT      CLOUDY    47  36  65 SE13      29.98F
6HR MIN TEMP:  38; 6HR MAX TEMP:  47;

LOUISVILLE     CLOUDY    49  37  63 SE13      29.98F
6HR MIN TEMP:  40; 6HR MAX TEMP:  49; 6HR PCP: TRACE;

LEBANON*       CLOUDY    46  41  81 SE8       29.98F
GLASGOW*       LGT RAIN  45  45 100 SE8       29.96F
BOWLING GREEN  CLOUDY    47  44  90 SE8       29.97F
6HR MIN TEMP:  40; 6HR MAX TEMP:  47; 6HR PCP: TRACE;

$$

KYZ091>093-OHZ055-061-077-WVZ005-015-034-035-042-041900
...SOUTHERN OHIO/WEST VIRGINIA...

CITY           SKY/WX    TMP DP  RH WIND       PRES   REMARKS
COVINGTON      CLOUDY    43  31  62 E9        30.01F
COLUMBUS       CLOUDY    40  30  67 E9        30.10F WCI  34
DAYTON         CLOUDY    38  28  67 SE14      30.04F WCI  30
WILMINGTON     CLOUDY    39  30  70 E9        30.04F WCI  33
HUNTINGTON     CLOUDY    45  30  55 VRB3      30.08F
CHARLESTON     CLOUDY    45  31  58 CALM      30.09F
PINEVILLE*     PTSUNNY   44  32  63 MISG      30.13F
BECKLEY        CLOUDY    37  30  75 SE9       30.08F WCI  30
BLUEFIELD      CLOUDY    36  32  85 VRB6      30.08F WCI  31
LOGAN CO APT*  MOCLDY    45  32  61 CALM      30.05F
$$

VAZ002-007-008-TNZ017-027-036-066-071-041900
...SOUTHWEST VIRGINIA/EAST TENNESSEE...

CITY           SKY/WX    TMP DP  RH WIND       PRES   REMARKS
WISE*          LGT RAIN  41  41 100 S9        30.05F
JONESVILLE*    LGT RAIN  45  43  93 NE5       30.08F
ABINGDON*      DRIZZLE   42  41  93 E8        30.09F
BRISTOL        LGT RAIN  43  41  93 NE5       30.08F FOG
MORRISTOWN*    CLOUDY    43  43 100 NE5       30.04F FOG
SEVIERVILLE*   CLOUDY    39  39 100 CALM      30.05F
KNOXVILLE      RAIN      42  40  92 N3        30.06F FOG
OAK RIDGE      RAIN      42  40  92 CALM      30.07F FOG
CROSSVILLE     LGT RAIN  42  41  96 SE7       30.00F FOG
NASHVILLE      CLOUDY    48  44  86 S12       29.96F
$$

...KEY TO REMARKS...
VSB - VISIBILITY IN MILES
WCI - WIND CHILL INDEX
HX  - HEAT INDEX

$$




USA.gov is the U.S. government's official web portal to all federal, state and local government web resources and services.